SCP
-0 -0 -0 -0 -0 -0 -0 0 0 0 0 -0 0 -0 0 0 0 0 0 -0 -0 -0 0 0 0 0 1 1 1 0 0 1 2 1 1 1 1 1 1 0 0 0 0
-0 -0 -0 -0 -0 -0 -0 0 0 0 0 -0 -0 -0 -0 -0 0 -0 0 0 0 0 0 -0 0 0 1 1 1 0 1 -0 2 2 1 1 1 1 0 0 0 0 0
-0 -0 -0 -0 -0 -0 -0 -0 0 0 0 -0 -0 -0 -1 -0 0 0 0 0 0 0 0 0 0 0 1 1 1 1 1 1 1 2 2 1 1 1 0 0 0 0 0
-0 -0 -0 -0 0 0 -0 -0 -0 0 0 -0 -0 0 -0 -0 -0 -0 0 0 0 0 0 1 1 1 1 0 1 1 2 2 1 2 1 2 2 1 1 0 0 0 0
-0 -0 -0 -0 -0 -0 -0 -0 -0 0 0 0 0 0 0 -0 -0 -0 0 0 1 0 1 1 1 1 1 1 1 1 1 2 2 2 1 2 2 1 1 0 0 0 0
-0 -0 -0 -0 -0 -0 -0 -1 -1 -0 -0 0 0 0 0 -0 -0 0 0 0 0 1 2 1 1 2 1 1 1 1 1 2 2 1 1 1 2 1 1 0 0 0 0
-0 -0 -0 -0 -0 -0 -0 -0 -1 -1 -0 -0 -0 -0 -0 -0 -0 0 0 0 -0 0 1 0 1 1 1 1 1 1 2 1 1 2 1 1 1 0 1 0 0 0 0
-0 -0 -0 -0 -0 -0 -0 -0 -2 -1 -0 -0 0 0 0 -0 -0 0 0 0 0 -0 1 1 1 1 0 1 1 1 1 1 1 1 2 1 1 0 0 0 0 0 0
-0 -0 -0 -0 -0 -0 -0 -0 -1 -1 -0 -0 0 0 0 0 0 0 0 0 -0 -0 0 0 0 0 1 1 1 0 1 1 1 1 1 1 1 1 1 0 0 0 0
0 -0 0 -0 -0 -0 -0 -0 -0 -1 -1 -0 0 0 0 0 0 0 1 0 0 0 -0 -0 0 0 0 0 0 0 0 0 1 1 1 1 1 1 1 0 0 1 0
0 0 -0 -0 -0 -0 -0 -0 -0 -1 -0 -0 -0 0 0 0 0 0 0 0 0 -0 -0 0 0 0 0 0 0 0 0 1 1 1 1 1 1 1 1 1 1 0 0
-0 -0 0 0 -0 -0 -0 -0 -0 -1 -1 -1 0 0 0 0 0 0 0 0 0 -0 0 0 0 1 0 0 0 0 0 1 1 1 1 1 1 2 1 1 0 0 0
0 0 0 0 0 0 0 -0 -0 -0 -2 -1 -1 0 1 1 1 1 0 -0 -0 0 0 1 1 1 1 0 1 1 1 1 1 1 1 1 1 1 3 0 0 0 0
1 1 1 1 2 2 2 1 0 0 0 -1 -0 -0 0 1 1 1 1 0 0 0 0 1 1 1 1 1 1 1 0 1 1 1 1 0 0 1 0 0 0 0 0
1 1 1 1 2 4 5 4 5 2 1 1 0 0 1 0 0 1 1 0 0 0 0 1 1 2 1 0 0 0 0 1 1 1 1 0 0 0 0 0 0 0 0
1 1 1 1 2 4 5 4 4 6 7 3 2 2 1 1 1 1 1 1 1 1 1 1 1 1 0 0 0 0 1 1 1 1 1 0 0 0 0 0 0 0 0
0 1 1 2 3 3 4 3 3 3 4 6 3 4 3 2 2 1 2 1 1 2 2 2 3 3 0 0 0 0 1 1 1 1 0 0 0 0 0 0 0 0 0
0 0 0 1 2 3 4 6 4 3 2 3 5 4 4 3 3 3 2 4 4 4 4 5 4 1 0 0 0 0 0 1 1 0 0 0 0 0 0 0 0 0 0
0 0 0 0 2 2 5 3 5 5 5 4 3 5 4 4 4 4 4 6 6 6 7 6 3 1 0 0 0 0 0 1 0 0 0 0 0 0 0 0 0 0 0
0 0 0 0 0 1 2 4 3 4 5 6 4 4 6 5 4 5 5 7 7 8 7 4 2 0 0 0 0 0 0 1 0 0 0 0 0 0 0 0 0 0 0
0 0 0 0 0 0 1 2 3 4 4 4 8 5 4 5 5 6 7 9 9 7 5 2 1 1 0 0 0 0 0 0 0 0 0 0 0 0 0 0 0 0 0
0 0 0 0 0 0 0 1 1 2 2 3 4 6 5 6 8 8 12 11 7 4 3 2 1 0 0 0 0 0 0 0 1 0 0 0 0 0 0 0 0 0 0
0 0 0 0 0 0 0 0 0 1 1 2 4 4 4 4 5 9 16 12 5 2 2 1 1 0 0 0 0 0 0 0 0 0 0 0 0 0 0 0 0 0 -0
0 0 0 0 0 0 0 -0 0 0 0 1 3 2 2 2 2 2 7 4 3 2 1 1 0 0 0 0 0 0 0 0 0 0 0 0 0 0 0 0 -0 -0 -0
0 0 0 0 0 0 0 0 0 1 1 2 2 1 1 1 0 0 0 0 0 0 1 1 0 0 0 0 0 0 0 0 0 0 0 0 0 0 0 0 0 0 0
0 0 0 0 0 0 0 1 1 1 1 2 3 2 2 1 0 0 0 0 0 0 0 0 0 0 0 0 0 0 0 0 0 0 0 0 0 0 0 0 0 0 0
Wind_Speed_500mb
40 40 37 36 37 38 37 40 36 36 30 29 14 16 24 13 13 16 9 5 3 3 9 7 7 17 9 18 24 22 20 21 29 36 40 37 25 36 32 31 57 71 72
44 44 43 44 43 43 43 41 41 37 37 31 28 21 28 8 23 24 15 2 6 9 5 4 5 12 19 20 28 27 29 27 25 32 32 20 26 37 46 50 53 74 68
45 50 52 49 47 48 46 45 44 42 36 34 27 25 34 16 14 18 12 16 14 13 11 16 13 18 15 27 29 26 28 28 29 35 38 31 25 35 43 46 59 67 52
49 53 54 56 52 50 50 47 44 46 40 35 36 27 23 22 23 23 21 29 12 10 13 18 21 26 20 18 24 23 36 41 38 39 40 40 43 46 37 44 61 54 43
50 52 55 57 51 50 53 51 50 46 43 37 43 34 35 31 24 13 23 15 16 29 23 21 25 23 22 23 34 40 39 45 44 37 41 41 45 41 39 58 59 49 29
52 50 57 59 54 51 51 55 53 48 45 51 41 45 37 38 32 21 21 13 21 25 26 19 16 18 24 29 33 37 45 41 44 39 38 35 40 43 48 49 45 33 13
49 53 53 59 56 51 52 51 61 52 47 54 52 48 49 45 42 32 17 31 17 14 11 13 20 20 31 35 40 40 35 31 38 39 39 44 48 44 46 41 27 15 2
39 54 50 51 55 49 54 51 58 57 49 50 59 50 51 53 46 36 30 24 21 24 14 19 26 37 43 30 34 34 28 31 39 42 39 53 44 41 41 32 21 6 3
31 44 51 51 48 48 51 54 53 55 52 50 56 56 49 50 52 40 31 31 38 40 27 34 34 27 30 30 32 30 28 36 42 46 44 46 45 42 33 24 18 9 3
15 34 38 47 47 46 45 47 50 56 55 49 54 56 53 48 48 41 42 34 29 27 36 39 36 30 24 26 27 28 30 37 42 45 42 44 41 36 30 20 9 9 4
15 29 40 39 39 38 41 46 49 53 55 47 50 51 53 50 47 54 51 48 43 42 39 27 23 20 19 24 24 29 31 38 40 39 45 38 38 35 29 16 5 10 5
39 34 6 45 56 54 55 57 57 58 59 51 52 51 49 46 47 45 47 45 39 30 26 25 24 21 22 20 26 29 30 35 32 36 35 36 36 36 27 13 3 7 9
26 34 35 36 26 56 67 68 67 65 68 62 53 61 53 46 45 42 38 37 36 32 29 26 26 23 20 20 27 26 34 29 21 27 28 29 31 23 18 11 7 10 18
23 31 37 40 29 16 17 54 64 65 66 65 61 59 64 57 46 44 41 44 41 36 34 32 29 26 21 25 26 28 27 21 20 22 19 27 29 19 14 14 6 19 14
28 31 40 45 38 24 14 17 22 46 61 65 66 62 59 66 54 50 52 53 48 43 40 36 23 24 27 24 20 23 14 17 18 17 24 29 32 21 12 12 4 21 21
26 30 34 40 37 35 23 20 29 30 27 54 66 68 64 65 67 60 59 59 52 45 38 28 28 25 37 26 18 15 12 10 4 14 17 26 27 20 15 11 20 12 23
26 26 32 36 37 32 29 30 31 36 48 39 51 70 71 66 69 68 64 60 52 44 37 30 35 47 43 22 14 11 10 3 8 11 13 19 20 18 17 19 21 26 20
21 24 29 33 37 35 24 24 21 31 37 47 46 62 71 72 69 72 69 63 56 49 37 44 51 50 33 17 10 9 5 2 7 6 9 13 14 14 13 12 20 22 19
20 22 25 30 35 28 40 28 25 26 35 36 48 52 64 70 69 70 71 67 62 50 55 55 55 48 28 17 14 13 8 9 15 7 4 5 6 10 14 6 17 13 14
20 23 27 29 29 28 29 38 31 29 29 35 45 52 56 59 64 73 77 75 65 67 66 59 55 44 29 22 18 24 18 17 8 9 6 1 6 9 13 12 12 12 15
26 27 27 30 30 33 29 31 35 33 37 40 36 48 57 65 73 75 71 75 76 72 70 60 53 39 33 27 25 34 32 25 10 5 4 4 10 10 14 17 10 8 11
33 33 33 33 33 32 32 38 40 39 43 44 45 45 55 66 70 74 77 82 78 73 67 60 48 42 35 31 27 25 22 24 21 11 8 6 12 12 13 15 13 10 12
37 37 40 40 39 38 40 44 45 45 53 41 44 51 52 61 62 71 81 74 70 67 62 50 40 32 33 27 25 22 18 19 17 11 10 10 14 15 13 9 15 19 22
45 45 47 49 45 41 42 50 52 48 50 46 42 43 47 51 40 13 68 55 56 59 52 45 38 30 21 23 28 21 19 17 16 17 16 15 16 12 11 14 24 25 18
56 53 54 55 50 46 47 47 48 54 53 47 45 49 35 40 63 37 28 27 52 46 42 44 47 47 45 34 25 29 24 18 16 20 22 21 18 15 15 17 22 14 9
49 51 54 57 58 50 50 50 51 58 61 46 44 50 43 33 32 60 76 88 53 69 49 45 60 53 33 24 22 23 19 18 17 19 22 25 25 26 24 25 28 25 23
Wind_Direction_500mb
192 187 191 184 178 186 189 188 191 199 199 196 189 187 216 253 261 222 197 243 73 218 279 340 320 359 302 312 324 332 348 335 312 310 321 330 295 268 270 284 302 323 333
191 190 188 190 189 192 194 199 196 207 206 193 204 221 236 284 232 246 203 195 221 165 307 220 256 291 281 315 321 305 318 331 333 321 318 335 303 284 286 289 298 306 317
196 189 188 194 194 196 200 205 203 208 213 187 209 221 227 238 230 250 211 243 205 174 261 286 285 280 303 317 331 325 309 334 320 315 306 301 288 293 296 293 303 322 329
194 191 190 192 200 200 207 208 219 210 222 201 199 228 228 215 232 266 257 212 206 229 253 276 295 299 283 302 313 304 312 308 312 311 313 293 300 292 299 307 314 329 338
191 194 191 195 202 205 204 210 219 224 211 220 206 206 226 217 249 213 173 184 240 273 270 249 258 296 308 300 298 302 303 314 312 304 300 303 310 299 297 301 319 334 340
185 191 193 195 197 204 205 209 218 228 222 219 221 211 219 207 222 233 222 242 260 268 272 232 260 279 296 304 298 302 307 308 313 307 307 310 298 305 303 300 320 334 352
189 182 186 186 192 201 204 208 216 223 231 218 226 219 216 214 222 234 219 228 253 320 239 216 286 301 299 295 302 308 315 314 313 315 309 299 303 308 300 316 321 341 339
192 182 186 185 189 198 204 207 219 222 231 227 225 228 223 222 223 226 221 223 243 262 240 271 284 288 295 304 309 312 316 309 304 308 306 310 317 317 313 321 313 277 269
179 185 185 188 196 198 204 204 220 225 235 235 223 227 229 225 228 228 236 232 236 245 267 272 277 293 296 301 304 314 312 307 312 311 319 321 325 326 323 316 304 235 202
181 177 191 190 194 200 204 207 214 230 240 235 225 226 230 230 224 216 227 229 235 246 245 262 276 284 291 300 316 332 326 323 329 333 332 337 336 339 336 323 294 185 100
161 189 187 196 194 201 205 205 208 220 232 232 226 226 228 229 226 223 227 228 230 238 251 257 274 288 299 304 320 322 336 326 330 338 337 346 346 345 341 327 232 183 141
1 0 254 203 197 200 203 206 208 213 231 234 219 230 228 228 229 226 228 233 237 228 239 260 273 285 287 310 308 329 325 328 334 332 345 346 349 344 343 346 121 173 160
3 355 357 341 355 207 200 202 207 209 220 228 229 224 229 228 228 229 225 222 216 230 247 258 270 282 293 295 307 313 327 335 346 336 342 333 331 342 345 328 328 175 136
24 11 356 342 342 352 231 209 206 206 212 225 231 227 227 229 227 227 223 215 220 237 251 252 244 254 276 269 304 319 328 355 340 336 346 342 349 1 344 348 333 150 130
39 12 359 350 344 345 335 247 207 208 212 218 228 232 236 232 228 224 222 221 230 242 249 245 238 244 252 277 293 318 329 337 3 3 343 356 10 28 21 10 46 150 145
40 23 9 358 344 336 315 288 262 237 219 224 226 232 235 235 230 225 224 228 235 244 239 235 217 225 248 266 295 307 312 343 340 330 347 358 16 41 31 39 119 128 143
29 18 5 2 351 342 329 301 273 261 243 227 236 228 231 236 230 227 226 231 235 231 228 214 213 226 241 252 279 282 287 294 322 339 10 357 28 55 68 101 124 138 148
16 7 360 349 353 339 346 332 287 262 262 252 237 232 225 232 230 226 226 223 226 220 216 212 225 236 239 237 252 231 253 303 339 351 356 12 42 81 86 111 140 158 177
5 351 342 337 352 356 355 313 311 291 265 263 255 240 229 227 229 222 219 218 216 213 209 218 227 237 228 229 212 187 188 272 322 327 9 9 74 108 114 119 160 155 158
348 344 340 338 336 332 352 328 330 297 299 270 265 246 235 227 222 219 218 217 212 209 212 220 222 229 219 220 202 166 172 254 306 345 102 172 133 148 152 152 175 176 164
324 327 330 332 329 331 325 332 323 318 302 283 271 254 242 235 225 219 213 212 208 211 215 215 223 213 211 209 192 186 187 197 214 295 143 114 171 168 171 169 170 186 170
315 314 315 321 324 315 320 315 311 311 302 294 272 265 250 235 227 219 213 213 211 208 205 210 208 207 202 198 195 196 196 190 201 197 186 145 151 158 176 175 182 155 159
304 307 307 305 308 315 310 311 312 315 308 301 292 265 257 249 237 218 210 206 211 201 202 204 191 203 198 199 195 197 195 189 188 168 153 155 149 144 146 144 145 127 106
295 295 298 300 295 298 303 306 309 306 306 301 290 290 272 262 256 89 184 199 209 202 195 189 177 191 211 205 176 168 175 181 173 165 155 153 161 144 142 129 139 127 138
290 290 289 288 287 289 294 301 303 302 303 302 287 288 283 276 264 244 205 255 222 209 199 174 182 189 195 216 190 175 186 183 164 160 160 167 169 155 161 150 157 144 211
288 285 285 284 282 285 290 292 294 297 299 297 285 281 285 272 213 198 210 231 215 182 179 194 195 199 203 185 189 190 197 200 180 172 171 178 188 186 192 194 188 182 167
Wind_Speed_850mb
40 40 37 36 37 38 37 40 36 36 30 29 14 16 24 13 13 16 9 5 3 3 9 7 7 17 9 18 24 22 20 21 29 36 40 37 25 36 32 31 57 71 72
44 44 43 44 43 43 43 41 41 37 37 31 28 21 28 8 23 24 15 2 6 9 5 4 5 12 19 20 28 27 29 27 25 32 32 20 26 37 46 50 53 74 68
45 50 52 49 47 48 46 45 44 42 36 34 27 25 34 16 14 18 12 16 14 13 11 16 13 18 15 27 29 26 28 28 29 35 38 31 25 35 43 46 59 67 52
49 53 54 56 52 50 50 47 44 46 40 35 36 27 23 22 23 23 21 29 12 10 13 18 21 26 20 18 24 23 36 41 38 39 40 40 43 46 37 44 61 54 43
50 52 55 57 51 50 53 51 50 46 43 37 43 34 35 31 24 13 23 15 16 29 23 21 25 23 22 23 34 40 39 45 44 37 41 41 45 41 39 58 59 49 29
52 50 57 59 54 51 51 55 53 48 45 51 41 45 37 38 32 21 21 13 21 25 26 19 16 18 24 29 33 37 45 41 44 39 38 35 40 43 48 49 45 33 13
49 53 53 59 56 51 52 51 61 52 47 54 52 48 49 45 42 32 17 31 17 14 11 13 20 20 31 35 40 40 35 31 38 39 39 44 48 44 46 41 27 15 2
39 54 50 51 55 49 54 51 58 57 49 50 59 50 51 53 46 36 30 24 21 24 14 19 26 37 43 30 34 34 28 31 39 42 39 53 44 41 41 32 21 6 3
31 44 51 51 48 48 51 54 53 55 52 50 56 56 49 50 52 40 31 31 38 40 27 34 34 27 30 30 32 30 28 36 42 46 44 46 45 42 33 24 18 9 3
15 34 38 47 47 46 45 47 50 56 55 49 54 56 53 48 48 41 42 34 29 27 36 39 36 30 24 26 27 28 30 37 42 45 42 44 41 36 30 20 9 9 4
15 29 40 39 39 38 41 46 49 53 55 47 50 51 53 50 47 54 51 48 43 42 39 27 23 20 19 24 24 29 31 38 40 39 45 38 38 35 29 16 5 10 5
39 34 6 45 56 54 55 57 57 58 59 51 52 51 49 46 47 45 47 45 39 30 26 25 24 21 22 20 26 29 30 35 32 36 35 36 36 36 27 13 3 7 9
26 34 35 36 26 56 67 68 67 65 68 62 53 61 53 46 45 42 38 37 36 32 29 26 26 23 20 20 27 26 34 29 21 27 28 29 31 23 18 11 7 10 18
23 31 37 40 29 16 17 54 64 65 66 65 61 59 64 57 46 44 41 44 41 36 34 32 29 26 21 25 26 28 27 21 20 22 19 27 29 19 14 14 6 19 14
28 31 40 45 38 24 14 17 22 46 61 65 66 62 59 66 54 50 52 53 48 43 40 36 23 24 27 24 20 23 14 17 18 17 24 29 32 21 12 12 4 21 21
26 30 34 40 37 35 23 20 29 30 27 54 66 68 64 65 67 60 59 59 52 45 38 28 28 25 37 26 18 15 12 10 4 14 17 26 27 20 15 11 20 12 23
26 26 32 36 37 32 29 30 31 36 48 39 51 70 71 66 69 68 64 60 52 44 37 30 35 47 43 22 14 11 10 3 8 11 13 19 20 18 17 19 21 26 20
21 24 29 33 37 35 24 24 21 31 37 47 46 62 71 72 69 72 69 63 56 49 37 44 51 50 33 17 10 9 5 2 7 6 9 13 14 14 13 12 20 22 19
20 22 25 30 35 28 40 28 25 26 35 36 48 52 64 70 69 70 71 67 62 50 55 55 55 48 28 17 14 13 8 9 15 7 4 5 6 10 14 6 17 13 14
20 23 27 29 29 28 29 38 31 29 29 35 45 52 56 59 64 73 77 75 65 67 66 59 55 44 29 22 18 24 18 17 8 9 6 1 6 9 13 12 12 12 15
26 27 27 30 30 33 29 31 35 33 37 40 36 48 57 65 73 75 71 75 76 72 70 60 53 39 33 27 25 34 32 25 10 5 4 4 10 10 14 17 10 8 11
33 33 33 33 33 32 32 38 40 39 43 44 45 45 55 66 70 74 77 82 78 73 67 60 48 42 35 31 27 25 22 24 21 11 8 6 12 12 13 15 13 10 12
37 37 40 40 39 38 40 44 45 45 53 41 44 51 52 61 62 71 81 74 70 67 62 50 40 32 33 27 25 22 18 19 17 11 10 10 14 15 13 9 15 19 22
45 45 47 49 45 41 42 50 52 48 50 46 42 43 47 51 40 13 68 55 56 59 52 45 38 30 21 23 28 21 19 17 16 17 16 15 16 12 11 14 24 25 18
56 53 54 55 50 46 47 47 48 54 53 47 45 49 35 40 63 37 28 27 52 46 42 44 47 47 45 34 25 29 24 18 16 20 22 21 18 15 15 17 22 14 9
49 51 54 57 58 50 50 50 51 58 61 46 44 50 43 33 32 60 76 88 53 69 49 45 60 53 33 24 22 23 19 18 17 19 22 25 25 26 24 25 28 25 23
Wind_Direction_850mb
192 187 191 184 178 186 189 188 191 199 199 196 189 187 216 253 261 222 197 243 73 218 279 340 320 359 302 312 324 332 348 335 312 310 321 330 295 268 270 284 302 323 333
191 190 188 190 189 192 194 199 196 207 206 193 204 221 236 284 232 246 203 195 221 165 307 220 256 291 281 315 321 305 318 331 333 321 318 335 303 284 286 289 298 306 317
196 189 188 194 194 196 200 205 203 208 213 187 209 221 227 238 230 250 211 243 205 174 261 286 285 280 303 317 331 325 309 334 320 315 306 301 288 293 296 293 303 322 329
194 191 190 192 200 200 207 208 219 210 222 201 199 228 228 215 232 266 257 212 206 229 253 276 295 299 283 302 313 304 312 308 312 311 313 293 300 292 299 307 314 329 338
191 194 191 195 202 205 204 210 219 224 211 220 206 206 226 217 249 213 173 184 240 273 270 249 258 296 308 300 298 302 303 314 312 304 300 303 310 299 297 301 319 334 340
185 191 193 195 197 204 205 209 218 228 222 219 221 211 219 207 222 233 222 242 260 268 272 232 260 279 296 304 298 302 307 308 313 307 307 310 298 305 303 300 320 334 352
189 182 186 186 192 201 204 208 216 223 231 218 226 219 216 214 222 234 219 228 253 320 239 216 286 301 299 295 302 308 315 314 313 315 309 299 303 308 300 316 321 341 339
192 182 186 185 189 198 204 207 219 222 231 227 225 228 223 222 223 226 221 223 243 262 240 271 284 288 295 304 309 312 316 309 304 308 306 310 317 317 313 321 313 277 269
179 185 185 188 196 198 204 204 220 225 235 235 223 227 229 225 228 228 236 232 236 245 267 272 277 293 296 301 304 314 312 307 312 311 319 321 325 326 323 316 304 235 202
181 177 191 190 194 200 204 207 214 230 240 235 225 226 230 230 224 216 227 229 235 246 245 262 276 284 291 300 316 332 326 323 329 333 332 337 336 339 336 323 294 185 100
161 189 187 196 194 201 205 205 208 220 232 232 226 226 228 229 226 223 227 228 230 238 251 257 274 288 299 304 320 322 336 326 330 338 337 346 346 345 341 327 232 183 141
1 0 254 203 197 200 203 206 208 213 231 234 219 230 228 228 229 226 228 233 237 228 239 260 273 285 287 310 308 329 325 328 334 332 345 346 349 344 343 346 121 173 160
3 355 357 341 355 207 200 202 207 209 220 228 229 224 229 228 228 229 225 222 216 230 247 258 270 282 293 295 307 313 327 335 346 336 342 333 331 342 345 328 328 175 136
24 11 356 342 342 352 231 209 206 206 212 225 231 227 227 229 227 227 223 215 220 237 251 252 244 254 276 269 304 319 328 355 340 336 346 342 349 1 344 348 333 150 130
39 12 359 350 344 345 335 247 207 208 212 218 228 232 236 232 228 224 222 221 230 242 249 245 238 244 252 277 293 318 329 337 3 3 343 356 10 28 21 10 46 150 145
40 23 9 358 344 336 315 288 262 237 219 224 226 232 235 235 230 225 224 228 235 244 239 235 217 225 248 266 295 307 312 343 340 330 347 358 16 41 31 39 119 128 143
29 18 5 2 351 342 329 301 273 261 243 227 236 228 231 236 230 227 226 231 235 231 228 214 213 226 241 252 279 282 287 294 322 339 10 357 28 55 68 101 124 138 148
16 7 360 349 353 339 346 332 287 262 262 252 237 232 225 232 230 226 226 223 226 220 216 212 225 236 239 237 252 231 253 303 339 351 356 12 42 81 86 111 140 158 177
5 351 342 337 352 356 355 313 311 291 265 263 255 240 229 227 229 222 219 218 216 213 209 218 227 237 228 229 212 187 188 272 322 327 9 9 74 108 114 119 160 155 158
348 344 340 338 336 332 352 328 330 297 299 270 265 246 235 227 222 219 218 217 212 209 212 220 222 229 219 220 202 166 172 254 306 345 102 172 133 148 152 152 175 176 164
324 327 330 332 329 331 325 332 323 318 302 283 271 254 242 235 225 219 213 212 208 211 215 215 223 213 211 209 192 186 187 197 214 295 143 114 171 168 171 169 170 186 170
315 314 315 321 324 315 320 315 311 311 302 294 272 265 250 235 227 219 213 213 211 208 205 210 208 207 202 198 195 196 196 190 201 197 186 145 151 158 176 175 182 155 159
304 307 307 305 308 315 310 311 312 315 308 301 292 265 257 249 237 218 210 206 211 201 202 204 191 203 198 199 195 197 195 189 188 168 153 155 149 144 146 144 145 127 106
295 295 298 300 295 298 303 306 309 306 306 301 290 290 272 262 256 89 184 199 209 202 195 189 177 191 211 205 176 168 175 181 173 165 155 153 161 144 142 129 139 127 138
290 290 289 288 287 289 294 301 303 302 303 302 287 288 283 276 264 244 205 255 222 209 199 174 182 189 195 216 190 175 186 183 164 160 160 167 169 155 161 150 157 144 211
288 285 285 284 282 285 290 292 294 297 299 297 285 281 285 272 213 198 210 231 215 182 179 194 195 199 203 185 189 190 197 200 180 172 171 178 188 186 192 194 188 182 167